SL-4 R/B (39679 NORAD) Tracking and Keplerian Element Data

This shows tracking and keplerian element data for the satellite.

Feedback or suggestion? Click here.




ElementValue
Catalog39679
NameSL-4 R/B
Epoch Orbit53598
Epoch Day12.6207663
Epoch Year2024
RAAN148.6109
Inclination51.6096
Eccentricity0.0144845
Argument of Perigee165.1489
Mean Anonmoly195.3808
Mean Motion15.16426935
Decay Rate0.0001355
L11 39679U 14021B 24012.62076630 .00013550 00000+0 53845-3 0 9992
L22 39679 51.6096 148.6109 0144845 165.1489 195.3808 15.16426935535988



Live tracking and technical data element details for SL-4 R/B (NORAD 39679). SL-4 R/B can be tracked NOW for your location showing map with azimuth and elevation plus other details from your city location.







IsCatalogInMostPopularTable: catalog: 39679, numindb: 242
Update: records affected: 1



GetName: 39679 SL-4 R/B

Hit Count: updated at: Fri, 19 Apr 2024 13:18:22 GMT